GFSSE_sfc_thetae_000.txt.gz
Theta_e
351 356 358 359 361 361 361 363 365 366 367 368 367 367 366 366 366 365 365 365 364 363 363 362 362 360 360 360 360 360 358 359 357 359 358 358 356 356 354 354 355 349 355
355 356 358 361 361 361 362 363 365 367 366 366 367 365 365 364 365 365 365 365 364 363 363 363 362 361 360 359 358 358 356 357 356 358 357 356 355 357 355 352 353 354 354
354 357 357 360 360 361 360 363 365 366 365 366 365 363 362 363 364 365 366 364 364 364 363 362 361 361 360 359 359 358 357 356 354 355 355 352 352 353 355 354 354 354 355
353 355 355 361 362 360 360 363 363 364 363 364 362 362 362 363 364 365 364 363 363 363 361 361 361 360 360 359 359 357 357 355 354 352 356 350 350 358 357 357 356 355 356
355 354 359 360 361 361 361 362 365 364 363 364 362 362 361 362 364 364 363 362 362 361 361 360 359 359 360 360 360 359 357 355 354 355 357 355 355 357 355 356 357 355 353
355 357 357 359 361 361 362 363 363 364 364 364 363 362 363 364 363 362 361 362 361 360 360 359 359 359 359 360 361 360 359 356 356 357 359 355 355 358 355 354 354 355 355
355 359 357 363 363 362 363 364 366 363 364 364 364 363 364 362 361 361 362 361 360 358 359 358 359 360 360 361 361 359 359 357 357 357 359 359 358 356 354 355 351 353 355
356 357 361 363 365 364 365 365 366 364 365 365 364 364 362 361 361 361 360 359 358 358 358 358 360 360 360 360 360 358 358 359 357 358 357 357 359 359 357 356 354 354 355
357 357 360 361 365 366 366 366 366 365 364 363 363 364 362 361 360 361 360 358 358 359 361 361 360 358 359 359 359 358 358 356 360 359 357 357 358 359 360 357 357 356 355
358 359 361 364 364 364 364 366 366 364 361 362 363 363 363 362 360 359 361 360 359 359 360 361 359 358 358 358 358 358 356 359 356 358 358 358 358 359 359 359 356 353 355
356 358 361 362 364 366 362 362 363 362 362 362 363 363 361 360 362 358 360 359 360 358 358 359 359 359 356 356 356 356 358 355 355 355 358 357 355 357 359 360 358 356 356
354 356 358 360 361 362 359 365 365 360 358 358 358 360 358 363 365 358 361 358 358 358 357 358 356 356 358 354 354 356 352 354 355 357 357 357 355 356 358 358 357 359 355
354 356 358 359 363 362 362 360 360 358 358 359 363 362 360 360 362 364 362 360 360 357 359 361 359 357 356 355 353 352 352 352 351 355 358 354 354 356 357 358 358 358 355
352 354 357 360 361 362 371 359 359 357 358 357 358 363 361 358 360 363 361 364 363 361 360 361 357 358 356 355 354 353 350 350 349 350 355 356 354 357 358 358 357 358 355
351 354 356 360 363 364 364 359 359 358 356 356 356 361 359 356 365 361 364 362 359 362 361 358 358 356 356 353 353 350 347 347 349 348 350 356 352 355 358 358 357 358 357
352 353 357 359 363 364 363 364 360 359 358 357 356 357 362 358 366 358 358 357 358 361 360 358 358 355 354 351 348 348 347 345 347 350 348 352 354 353 355 357 359 358 358
352 355 357 360 362 365 365 364 362 359 358 357 357 362 362 364 363 361 358 356 357 363 361 358 358 356 351 349 347 345 347 347 346 348 348 347 352 356 356 355 361 361 358
354 355 358 357 360 363 364 363 360 359 359 358 357 360 364 364 364 362 359 356 357 357 356 355 354 349 347 346 344 345 346 345 346 347 348 349 347 345 356 357 356 361 361
356 358 359 359 358 361 364 362 362 363 365 368 367 361 363 363 362 361 357 357 360 355 359 353 350 350 344 343 341 342 346 345 346 344 348 352 351 350 346 357 354 354 357
357 360 361 360 361 364 370 369 363 363 360 359 359 364 365 366 362 363 360 358 358 358 352 353 351 348 346 343 339 339 346 348 347 346 344 343 344 349 351 356 355 354 355
357 360 362 362 364 364 362 355 355 353 356 360 358 365 365 363 363 362 357 358 358 355 354 352 347 345 339 347 338 339 341 345 344 346 342 335 337 339 345 351 352 353 355
356 360 363 364 365 365 360 363 360 362 357 358 360 363 364 363 364 361 361 358 359 351 353 348 347 340 341 345 337 336 330 336 341 341 339 332 332 334 337 343 347 351 351
354 359 362 365 366 367 367 363 363 362 363 358 359 361 363 365 365 365 363 359 357 349 340 348 346 342 335 346 345 336 328 328 332 338 339 334 333 331 334 337 340 341 342
353 358 364 366 368 368 369 365 367 356 352 352 356 355 360 365 364 363 362 358 352 345 348 345 346 343 343 338 341 343 343 340 328 328 333 333 336 332 333 332 335 336 338
354 356 360 366 370 371 369 370 363 362 355 354 354 360 363 363 364 359 362 354 350 345 349 349 346 345 343 338 337 339 341 337 340 329 323 328 333 334 334 335 332 334 336
352 355 358 365 370 370 369 368 367 363 361 353 356 353 350 352 356 360 360 354 350 346 348 346 346 345 344 342 340 340 334 331 331 328 324 327 327 331 334 333 333 331 333

GFSSE_sfc_thetae_003.txt.gz
Theta_e
352 353 358 360 362 364 365 365 366 367 368 369 368 368 368 368 367 367 368 366 364 365 362 362 360 360 359 360 360 359 358 357 358 356 358 357 357 356 354 352 351 350 356
353 354 360 361 361 364 364 365 365 366 368 368 368 368 368 367 366 368 367 363 364 363 363 362 361 360 360 359 359 358 358 357 357 356 356 356 357 356 353 352 355 352 355
350 354 356 361 362 364 366 366 366 366 365 366 366 366 366 366 369 367 364 364 363 363 362 361 361 360 360 359 358 357 357 356 353 352 355 354 351 355 354 355 356 356 356
350 352 355 364 361 362 364 364 365 363 363 364 365 364 364 365 365 364 363 363 362 362 361 360 360 360 360 360 358 357 355 354 353 356 356 352 351 357 357 357 354 356 356
351 355 358 362 362 363 364 365 366 365 363 363 363 362 362 363 364 362 362 362 362 361 360 360 360 360 360 361 360 358 355 352 353 355 355 354 352 357 357 357 354 357 354
355 356 360 362 363 363 365 367 366 365 365 364 362 361 362 363 362 361 362 361 361 361 360 360 360 359 359 360 359 358 357 356 356 357 357 351 356 359 357 355 357 357 356
355 356 358 365 364 364 365 365 365 364 364 364 363 362 363 362 361 362 362 360 359 359 358 359 359 360 359 359 360 359 358 357 358 358 357 357 355 359 355 358 354 356 356
353 355 358 363 364 364 365 365 364 364 364 364 363 363 362 361 360 361 360 359 358 358 358 359 358 358 359 358 359 358 358 359 357 359 358 357 359 358 358 360 354 353 357
357 356 360 361 364 366 366 364 365 364 364 363 364 363 362 361 360 360 358 356 357 359 360 360 358 357 358 358 358 358 359 359 360 357 355 359 361 361 359 358 358 356 356
356 356 358 361 362 363 364 365 365 364 362 362 363 362 361 361 360 358 358 358 358 357 358 358 357 357 357 357 356 355 358 359 358 357 358 356 359 360 360 357 357 357 356
354 358 358 358 362 365 365 366 365 362 360 361 362 361 360 357 359 361 363 358 358 358 357 358 357 358 358 358 357 355 359 352 353 355 357 359 356 357 360 360 357 355 357
352 354 356 359 360 361 356 364 362 357 357 357 357 359 358 361 363 358 360 361 359 359 359 360 359 360 360 355 353 358 351 352 352 351 356 358 356 355 357 360 359 357 357
351 353 357 361 363 363 361 358 358 358 357 357 361 361 359 358 360 358 360 360 362 360 360 358 358 356 355 353 352 351 350 350 348 349 356 357 353 356 356 356 358 358 358
352 352 356 361 363 362 362 358 357 355 355 355 358 364 362 358 364 359 359 361 361 358 358 359 357 356 356 356 353 352 348 346 344 346 353 358 355 354 358 357 358 358 357
350 353 355 359 362 363 365 357 356 356 354 355 356 361 359 356 364 364 360 357 359 362 358 356 356 355 355 354 351 349 347 344 343 342 346 358 355 354 356 359 358 357 358
351 353 355 358 363 363 364 365 360 358 360 355 355 356 362 360 362 359 366 359 358 360 361 354 357 355 355 353 348 348 346 345 346 346 344 351 358 355 354 358 359 358 358
352 354 355 357 361 363 364 364 360 358 355 356 354 360 360 362 362 364 362 358 356 360 361 359 358 356 351 344 345 344 345 345 344 346 345 343 352 358 355 356 360 360 359
353 354 356 356 358 362 364 364 361 358 362 357 358 359 362 364 365 364 358 356 361 358 361 355 352 348 343 342 342 343 343 344 345 345 345 345 343 344 357 359 357 361 357
353 355 356 359 358 361 369 364 362 367 361 362 362 363 366 365 366 363 358 359 363 358 356 353 352 350 341 341 340 340 344 343 343 342 343 345 348 347 345 359 358 357 358
353 356 359 358 363 365 373 372 365 358 360 361 360 361 365 363 364 363 359 360 359 361 353 352 352 345 343 342 338 336 342 345 344 340 340 339 343 346 349 351 355 354 358
353 356 360 362 369 363 359 360 358 354 358 357 357 366 367 364 365 364 359 361 357 357 356 351 346 345 340 343 336 338 341 342 342 341 337 335 336 338 343 347 349 354 356
352 356 363 365 370 367 361 363 362 359 355 355 356 365 364 365 365 362 365 358 358 354 354 350 347 340 339 342 336 334 332 337 339 340 337 333 333 334 338 343 347 350 352
352 358 364 370 372 370 371 365 367 366 360 359 356 358 362 364 364 365 362 362 361 354 338 349 345 342 335 343 345 336 328 330 334 340 340 335 334 332 334 338 340 340 342
353 357 366 372 373 373 374 366 368 356 350 349 352 354 359 365 364 364 364 360 359 347 351 346 344 344 343 338 339 339 341 339 330 328 338 335 334 332 333 332 333 337 337
352 355 361 373 375 375 373 370 360 361 353 353 351 367 365 368 361 358 358 360 355 344 349 348 345 346 345 339 337 335 341 334 336 328 323 329 332 333 334 332 332 331 334
352 354 360 371 375 377 374 371 370 368 362 352 354 354 353 352 357 358 356 360 355 346 347 346 347 346 345 344 340 340 334 330 330 328 325 328 327 331 332 334 333 334 331

GFSSE_sfc_thetae_006.txt.gz
Theta_e
349 351 358 360 360 362 366 367 367 368 368 368 369 369 369 369 369 367 367 367 366 366 365 363 361 360 359 360 359 359 358 358 357 357 356 357 357 355 354 351 352 350 355
351 354 362 363 362 365 366 367 368 368 368 368 369 369 368 369 369 368 367 367 367 366 365 363 361 360 359 359 358 358 357 354 356 356 354 357 356 355 354 354 358 354 355
350 353 357 363 365 364 366 367 368 367 367 368 368 369 369 369 368 367 367 366 366 365 362 362 361 361 360 358 357 357 356 354 353 352 352 354 351 355 356 355 356 357 356
350 351 353 364 366 366 366 366 366 366 366 367 367 368 368 368 367 366 364 363 363 363 362 361 361 360 361 359 357 356 354 353 354 354 356 350 347 356 357 355 356 356 355
350 354 356 365 365 366 366 366 366 366 365 366 366 366 368 367 366 365 363 362 361 361 361 361 360 360 360 360 358 357 353 352 355 357 354 353 350 355 357 356 356 355 358
353 355 361 364 364 366 366 367 366 366 366 366 365 366 367 366 364 362 362 360 360 360 360 361 360 360 359 360 359 358 356 356 357 354 357 357 351 358 358 357 358 356 356
352 355 356 365 366 366 366 367 365 365 365 366 365 366 365 364 362 362 360 359 359 360 359 360 359 359 359 359 358 358 359 358 357 356 356 355 354 360 358 357 357 356 357
350 354 356 364 366 366 367 368 367 366 365 365 365 364 363 362 362 362 359 359 358 360 360 361 358 358 358 357 357 359 359 359 358 356 357 354 359 360 360 354 356 357 357
354 355 357 358 363 366 367 367 367 365 365 364 363 363 362 361 361 361 359 357 358 359 359 359 357 356 357 356 358 359 360 361 359 354 356 356 362 361 360 356 354 356 357
352 355 359 360 359 361 361 367 364 364 363 363 363 362 362 361 362 363 362 362 358 356 357 358 356 356 355 357 358 357 359 360 356 352 352 355 360 361 359 357 359 357 356
352 354 356 356 361 364 363 362 365 363 362 363 362 363 363 357 358 360 365 364 360 360 358 359 358 357 357 359 361 362 362 353 352 354 354 359 361 360 360 357 356 357 357
347 353 354 355 360 361 356 364 364 358 356 358 358 361 358 354 362 361 364 361 363 363 358 360 360 359 361 357 356 360 351 352 352 355 354 359 360 358 356 350 357 356 357
350 351 353 358 363 361 360 361 359 357 357 359 367 363 365 360 356 352 355 351 360 358 355 357 359 356 358 354 353 350 349 349 346 354 354 359 357 357 358 355 357 356 357
351 355 359 361 364 364 363 360 361 358 358 357 360 368 370 365 363 352 353 352 356 354 355 358 356 355 354 357 348 348 348 344 342 344 357 359 357 356 358 357 355 354 357
346 355 357 362 366 367 367 360 359 360 357 355 362 365 362 365 360 353 365 365 366 362 358 361 356 356 359 357 351 350 346 347 345 343 351 361 357 355 357 358 357 348 354
349 351 356 361 366 363 367 375 369 368 356 364 355 363 368 369 368 354 364 358 360 358 364 360 360 359 355 352 354 348 347 348 347 348 345 357 360 358 356 356 359 357 357
351 354 357 360 362 363 369 370 371 362 357 359 359 361 367 369 370 371 366 365 362 360 365 360 361 353 347 347 348 348 347 346 347 346 346 345 355 361 359 359 358 360 359
352 356 358 352 360 361 363 365 363 360 363 364 368 356 366 370 371 372 363 355 350 362 361 355 354 354 346 345 344 347 347 346 346 346 346 343 348 349 359 360 360 359 359
354 358 358 360 359 363 364 364 364 363 363 362 367 365 361 357 367 365 362 357 361 359 360 352 346 351 344 345 341 343 345 346 344 341 343 344 347 349 352 358 360 360 358
354 359 360 359 367 364 366 367 364 363 359 362 362 364 360 364 367 367 363 362 366 365 355 357 352 351 347 344 341 337 344 345 345 341 341 341 342 346 347 352 354 354 356
353 357 359 360 366 367 363 358 358 356 362 360 361 361 364 369 368 368 363 363 357 363 349 351 351 346 345 347 341 339 342 343 344 343 338 336 337 339 344 347 349 353 352
351 355 361 361 366 365 364 363 362 359 357 358 361 364 366 364 369 361 363 360 357 355 355 352 350 344 344 348 339 339 332 339 338 340 337 332 334 336 338 343 346 347 350
350 355 358 363 364 365 366 365 366 366 360 358 361 361 365 367 367 358 362 365 362 358 351 353 349 346 340 349 345 339 332 331 336 341 340 334 336 333 336 340 339 340 339
351 356 361 364 366 367 365 363 360 355 354 359 361 359 363 367 366 366 367 365 363 355 355 352 349 346 347 340 345 343 342 339 331 329 340 334 334 331 333 332 334 337 335
352 356 360 365 366 367 366 365 361 360 356 357 355 368 364 367 365 362 364 363 359 355 356 350 348 347 349 344 341 342 343 340 337 330 326 329 334 334 335 333 332 331 336
352 356 358 365 367 368 368 365 365 358 358 354 359 359 358 359 362 365 361 361 359 354 353 351 351 352 348 348 344 344 340 337 331 334 328 328 329 334 332 334 335 336 334

GFSSE_sfc_thetae_012.txt.gz
Theta_e
345 350 357 358 359 364 367 366 367 368 368 368 368 367 365 365 365 365 365 362 362 361 360 360 360 359 358 358 359 358 357 358 357 357 355 354 355 355 356 357 356 350 353
347 352 358 358 359 366 367 366 367 368 368 367 367 366 363 363 364 364 364 362 362 361 360 360 359 359 358 358 358 357 357 355 355 357 355 354 354 354 354 356 354 350 353
348 352 355 362 365 366 368 367 367 366 366 368 367 365 364 363 364 363 362 362 362 361 361 361 359 358 357 357 357 355 355 353 354 356 354 349 350 355 358 356 355 354 355
350 351 355 362 365 366 367 367 368 366 366 368 367 365 364 363 364 362 362 362 361 361 360 359 360 360 358 357 356 354 354 354 353 353 351 349 348 356 357 357 356 354 355
350 353 356 363 365 366 366 367 367 366 366 367 365 363 363 362 362 362 361 361 361 360 360 359 359 358 359 357 357 354 355 353 356 354 347 345 346 354 357 356 356 355 356
350 354 361 365 364 365 366 366 365 364 364 366 366 363 362 362 362 361 360 361 360 360 359 359 358 356 357 358 357 357 357 358 350 340 350 350 347 357 356 356 356 356 356
350 354 359 365 367 367 366 365 365 363 363 365 366 363 362 362 361 360 360 360 360 359 359 357 356 356 356 357 356 359 357 358 345 345 347 350 351 360 358 357 355 355 353
351 355 357 364 365 367 365 363 364 363 362 365 366 364 363 363 362 360 359 359 359 359 358 356 356 357 358 357 356 360 356 355 346 345 347 351 359 359 357 357 356 356 355
353 354 355 356 358 364 366 363 364 363 362 363 364 364 365 363 362 359 359 358 357 357 358 358 356 357 358 358 357 359 356 352 341 340 348 350 360 357 356 356 357 356 355
351 354 354 355 355 358 358 364 364 364 363 363 363 362 362 362 361 359 363 361 356 356 357 357 356 358 359 357 360 357 359 354 342 340 347 349 360 359 355 357 357 357 356
349 352 354 354 355 356 357 359 364 364 364 363 362 363 363 354 352 357 358 358 358 358 356 356 357 359 362 360 363 360 359 348 345 340 340 349 359 359 357 356 356 356 355
345 349 353 354 355 355 359 354 356 356 356 356 356 355 354 351 350 358 357 348 352 359 358 360 361 360 359 352 350 349 343 346 347 343 347 355 360 357 356 359 358 356 357
347 349 351 353 354 354 354 354 353 352 351 352 352 351 351 352 346 348 345 339 342 352 350 351 351 353 352 344 344 342 337 346 349 350 352 356 360 359 353 358 356 356 357
347 349 350 352 352 351 351 354 354 351 348 348 349 349 349 349 342 345 338 346 346 349 344 350 349 350 349 348 341 339 335 337 346 347 349 357 359 361 357 357 356 357 357
346 348 349 352 352 352 351 352 352 350 349 348 348 351 350 347 344 343 345 347 345 348 346 347 350 349 348 347 345 340 335 337 338 345 346 358 357 361 359 356 350 353 357
346 346 350 351 351 353 352 350 350 350 349 348 351 352 350 348 345 345 344 346 347 348 350 349 347 346 341 340 340 343 337 339 336 338 345 349 357 359 361 358 356 351 355
344 347 348 350 353 352 351 351 351 354 352 349 352 351 354 351 347 347 347 345 348 348 349 345 343 341 338 340 333 334 335 335 337 335 337 345 349 358 359 358 358 354 352
346 347 348 352 353 351 352 353 352 350 347 347 350 352 354 351 350 349 348 348 347 347 347 345 343 341 342 332 329 331 332 334 336 337 338 340 345 348 356 359 361 358 355
348 349 349 350 352 350 352 353 352 348 349 348 350 351 352 354 354 350 348 347 345 349 344 341 340 340 333 328 331 330 331 331 332 335 334 338 338 344 347 354 355 356 355
348 350 351 351 350 351 352 350 350 347 348 351 349 350 354 354 354 348 349 347 346 345 342 340 338 335 330 331 335 329 330 331 330 329 329 334 342 347 348 348 345 348 356
347 349 350 349 349 350 348 348 346 346 347 348 350 348 349 350 352 349 348 349 347 345 341 340 336 329 329 333 325 328 331 331 328 326 323 329 334 339 341 341 344 347 352
345 348 349 349 349 349 349 350 348 348 348 349 349 350 350 350 351 350 348 347 347 346 341 336 332 327 330 330 323 324 322 330 332 324 322 327 327 333 336 339 342 343 344
344 346 346 349 350 350 350 351 348 348 347 346 347 348 350 353 353 351 350 348 346 344 339 335 332 329 325 330 328 325 321 319 326 330 321 323 322 325 328 331 332 337 342
344 346 347 348 352 352 353 350 348 346 344 347 346 348 352 355 353 351 350 347 344 341 337 335 334 330 328 325 331 331 327 326 320 321 327 322 321 321 321 323 328 329 339
343 346 346 346 353 353 353 351 349 346 347 344 346 347 348 353 354 351 350 348 342 339 337 334 332 329 332 326 328 328 327 325 320 320 317 320 324 321 321 320 326 326 330
342 345 347 346 347 352 353 351 350 347 345 343 342 343 347 352 352 352 351 350 341 336 337 334 332 329 333 333 329 328 326 322 321 320 316 317 318 322 324 323 321 321 325

GFSSE_sfc_thetae_015.txt.gz
Theta_e
344 349 355 357 358 359 364 367 366 367 366 366 366 365 363 362 362 362 361 361 361 360 360 360 360 359 358 358 357 357 357 357 356 354 353 355 356 356 355 356 354 348 355
346 350 356 358 361 364 365 365 365 365 365 365 365 364 362 362 363 362 361 361 360 360 359 359 359 358 358 358 357 357 356 356 356 355 353 354 354 355 356 353 352 349 353
347 350 353 359 362 365 365 365 364 363 364 364 363 363 362 363 362 362 362 361 360 360 360 359 358 357 357 357 357 356 355 354 355 355 353 347 349 356 355 354 353 354 355
348 350 353 360 363 364 364 365 365 364 364 363 363 363 363 363 362 362 361 360 360 359 358 359 360 359 357 357 356 355 354 356 355 353 348 348 350 356 356 356 355 354 355
348 350 354 361 364 363 363 365 366 366 363 363 363 363 362 362 361 361 360 359 359 359 359 359 358 358 357 357 355 355 357 353 352 351 346 345 346 354 356 356 353 356 355
349 352 359 362 363 363 363 363 363 364 363 363 362 362 362 361 360 360 360 360 359 359 358 359 358 358 357 356 357 358 357 354 349 344 347 351 347 356 357 355 356 356 356
348 353 357 365 365 363 362 362 362 362 363 363 362 361 362 360 360 359 359 359 358 358 358 356 357 358 357 358 357 357 354 348 342 344 348 348 348 358 357 357 355 356 355
349 353 356 362 364 364 362 362 362 361 362 363 362 361 362 361 359 358 358 358 358 358 358 357 357 358 356 358 358 357 354 347 342 343 348 350 354 359 358 356 355 354 352
351 353 354 355 358 363 364 362 361 361 362 363 362 361 361 361 360 358 357 357 357 357 357 357 356 357 357 360 357 357 355 353 342 345 348 349 359 358 357 355 356 356 352
352 353 352 351 352 355 356 362 362 361 362 363 362 362 361 361 361 359 361 357 356 355 356 356 356 357 356 358 359 358 356 351 341 340 347 349 359 355 355 356 356 356 354
350 352 353 352 351 354 355 357 362 362 362 362 361 361 362 353 352 357 359 357 359 358 355 356 357 358 357 357 362 360 360 344 341 340 343 352 356 357 355 356 357 356 355
345 350 353 352 353 354 358 354 355 355 355 354 355 354 355 351 349 355 356 354 352 357 357 358 357 358 356 349 345 347 345 346 341 338 339 352 355 358 357 356 356 355 355
346 349 352 353 354 354 354 351 352 352 352 353 353 352 352 350 349 350 345 343 340 352 348 350 349 351 350 344 341 339 343 345 343 344 349 356 357 357 355 359 358 356 356
344 347 351 352 352 352 350 352 351 351 348 348 350 349 347 347 343 342 336 343 343 347 345 345 347 349 347 348 340 335 338 345 346 347 348 358 360 358 355 356 356 356 356
343 346 349 351 351 352 348 352 349 349 348 347 347 348 348 346 344 342 340 345 344 346 345 347 348 349 348 344 341 337 333 341 343 344 344 357 356 358 358 354 356 357 357
345 346 348 349 350 350 348 348 350 349 347 345 346 348 349 347 344 342 340 344 345 345 347 348 345 345 340 339 341 341 335 337 339 342 343 345 357 357 359 355 355 352 356
346 348 347 349 350 349 349 349 348 348 348 345 347 351 351 348 344 343 342 344 346 347 347 345 344 339 337 336 330 332 334 334 337 336 339 343 347 356 356 357 356 352 351
346 345 347 351 349 349 350 348 349 349 350 348 347 349 351 350 346 345 346 344 346 345 346 343 342 339 338 332 328 330 331 333 333 336 335 338 342 346 351 354 356 355 354
345 345 347 349 349 349 350 350 349 349 347 346 346 348 350 350 350 348 347 346 345 345 342 341 338 337 328 327 330 330 329 330 331 333 333 336 339 344 344 351 356 356 354
344 345 346 348 350 350 350 350 349 346 345 346 347 348 350 351 352 349 347 346 344 344 341 338 336 334 328 328 334 327 329 329 328 328 330 339 341 347 346 346 343 347 354
344 345 346 346 348 349 347 347 345 345 344 346 348 348 351 352 353 348 347 345 344 343 340 338 335 329 326 330 322 326 329 329 325 323 327 332 338 340 340 342 343 346 348
343 345 346 347 347 349 349 349 347 345 345 346 348 347 348 351 351 348 346 346 345 343 339 337 331 327 327 329 322 322 320 327 327 321 324 329 331 335 336 340 340 342 341
341 345 347 347 348 348 348 348 345 345 344 344 345 345 348 349 349 349 347 346 345 343 339 334 331 326 324 329 326 324 319 318 322 328 320 322 324 326 329 332 339 341 339
341 346 347 348 348 347 348 347 346 344 342 344 345 346 348 350 350 350 349 347 345 343 338 334 332 327 326 324 329 328 325 325 319 316 323 321 320 320 323 326 328 331 339
341 344 347 348 347 347 348 347 346 343 344 342 343 345 346 349 350 351 348 346 342 339 338 334 331 329 328 325 327 325 324 323 320 320 314 317 321 321 319 319 326 325 334
341 344 346 345 347 348 348 347 346 345 343 341 340 344 344 346 350 350 349 347 343 338 336 334 332 328 331 328 328 327 325 320 319 317 315 316 316 319 322 321 320 323 324

GFSSE_sfc_thetae_018.txt.gz
Theta_e
345 350 357 357 358 361 363 362 363 367 366 365 365 364 363 362 361 361 361 361 360 360 360 360 358 358 358 357 358 356 356 356 354 353 353 355 356 355 355 354 354 353 357
346 350 356 357 357 360 365 365 366 365 364 364 364 363 362 362 362 362 361 360 360 360 360 359 358 358 357 357 357 357 357 356 355 354 355 355 355 355 354 353 352 352 356
346 349 352 357 360 363 365 365 364 363 362 363 363 362 362 362 362 362 361 360 360 360 359 359 358 358 357 356 355 355 355 355 355 354 354 351 352 356 353 353 353 354 355
348 349 351 358 363 363 364 364 365 362 362 363 362 363 362 362 362 361 361 360 359 359 359 358 358 357 356 356 355 355 354 354 355 354 351 350 352 357 354 355 354 355 356
348 350 353 360 365 364 363 364 365 363 363 362 362 362 362 361 361 360 359 359 360 359 359 359 358 357 355 354 354 354 356 355 356 352 349 350 354 355 356 354 355 355 355
349 352 358 362 362 364 363 365 364 362 362 362 361 362 361 360 360 359 360 360 360 359 359 358 357 357 354 353 353 355 355 355 352 349 349 354 354 356 356 355 357 357 356
348 353 355 364 364 364 363 363 363 362 362 361 361 361 361 360 359 359 359 359 359 359 359 357 358 356 356 356 353 355 354 353 344 350 351 351 353 357 356 356 357 356 356
349 353 355 363 362 363 362 363 362 362 362 361 361 361 361 359 358 358 357 358 359 360 358 357 357 355 356 358 357 356 350 347 342 348 351 352 356 357 356 356 356 354 355
352 352 354 356 358 362 362 362 361 361 362 362 361 360 361 360 357 357 356 358 358 358 358 357 356 356 358 356 357 356 354 349 344 348 349 354 357 356 356 354 355 351 355
350 353 351 352 354 355 356 361 361 361 362 362 361 361 360 360 358 356 360 357 358 356 355 357 356 355 359 360 355 357 355 352 346 345 350 351 358 356 356 355 356 354 352
349 350 350 349 349 354 355 356 361 361 361 361 360 360 362 354 355 354 357 356 359 358 355 354 357 359 360 356 358 359 357 348 342 344 348 350 355 355 354 355 354 355 352
345 348 350 349 350 354 357 355 355 355 356 356 357 356 358 356 353 355 356 354 352 359 357 357 357 357 354 351 347 347 353 348 345 341 344 350 354 354 355 356 356 356 356
345 349 351 350 352 354 355 353 354 354 355 355 355 355 356 354 352 354 351 349 345 350 352 353 351 351 353 347 345 343 349 347 343 340 344 350 355 353 353 355 356 355 354
344 347 351 352 352 353 352 353 352 352 352 352 352 353 352 350 349 348 344 343 347 349 349 348 351 350 350 350 343 340 347 349 346 346 351 353 356 354 353 352 357 356 356
343 346 350 352 352 353 349 351 351 350 351 350 350 351 350 349 348 346 345 348 348 350 350 350 350 352 349 347 345 340 340 348 349 349 349 353 356 355 354 354 354 356 356
343 345 349 351 352 352 350 349 350 350 349 348 347 349 350 349 348 347 345 346 348 349 351 351 350 348 344 342 345 344 340 341 347 347 348 349 353 355 355 353 354 354 355
344 345 347 349 351 350 349 347 349 350 349 347 346 348 351 350 349 347 345 346 349 351 352 351 348 345 341 338 337 338 340 339 340 344 345 348 349 353 354 354 353 353 352
345 345 347 349 349 349 348 347 348 348 348 348 347 349 352 352 350 348 347 348 350 350 351 348 347 345 340 336 333 336 338 339 338 341 341 341 345 349 353 355 357 352 352
345 346 346 347 347 348 348 348 348 348 349 349 349 349 351 353 352 349 349 350 351 349 348 347 344 342 335 334 336 335 335 335 338 337 339 343 344 349 350 353 354 354 351
346 346 346 347 348 348 348 349 349 348 348 349 347 349 351 352 352 349 349 350 348 348 345 343 342 338 335 334 333 333 334 334 334 334 341 345 348 349 349 351 351 351 354
345 345 345 346 348 347 347 346 346 346 346 347 348 350 351 352 353 351 350 350 347 347 346 344 340 337 333 335 331 333 336 334 330 329 336 342 345 344 346 348 349 351 352
342 343 344 346 348 349 348 348 349 347 347 347 350 350 352 352 353 352 350 349 348 347 344 343 339 333 332 333 329 328 329 334 333 327 332 336 338 341 341 345 347 347 347
341 342 343 345 347 349 350 349 346 347 347 346 347 349 349 352 353 353 350 350 349 348 345 342 338 334 331 334 332 330 325 326 327 332 328 328 331 335 336 340 345 346 344
340 343 345 346 346 348 349 348 346 345 344 346 346 348 349 351 351 352 351 350 349 348 345 342 337 334 333 332 334 332 331 331 327 326 328 328 328 327 332 335 335 338 345
340 341 345 346 346 347 348 348 346 345 345 345 346 347 348 350 351 351 351 350 349 347 346 342 336 334 333 332 333 330 329 327 327 325 320 324 328 328 328 328 331 333 340
341 341 343 345 346 348 347 347 346 345 343 342 343 344 346 349 350 352 352 350 349 346 345 342 338 336 335 333 334 333 331 328 325 325 324 323 324 327 329 329 328 331 333

GFSSE_sfc_thetae_021.txt.gz
Theta_e
347 353 358 359 359 360 360 362 362 363 364 366 365 364 363 362 361 361 361 360 361 360 360 359 359 357 356 357 356 356 355 354 354 354 356 357 355 355 354 356 357 354 358
351 353 357 358 360 361 363 363 363 364 364 364 364 363 361 362 362 361 361 360 360 360 360 358 357 357 357 357 357 357 356 355 353 353 355 356 356 356 354 353 353 356 358
348 353 355 359 363 364 365 363 364 363 363 363 363 362 361 362 362 361 361 361 360 359 358 358 357 357 356 356 356 355 355 356 354 353 354 353 354 354 353 353 354 356 356
349 352 353 360 365 365 366 366 365 362 362 362 362 363 362 362 362 361 360 359 359 359 358 358 356 355 355 355 354 354 353 356 355 353 352 353 352 355 354 356 356 356 356
350 351 354 361 366 364 365 365 365 364 363 363 363 363 362 361 361 360 360 360 360 359 359 359 356 355 354 353 353 353 356 356 356 351 353 356 354 356 356 355 356 356 353
350 351 358 363 363 364 365 365 363 363 362 362 363 361 362 361 360 360 359 360 360 360 359 357 358 356 354 353 352 353 357 357 356 352 353 355 355 357 353 356 355 356 356
349 353 357 363 365 365 366 365 363 362 362 362 362 361 361 360 360 359 360 359 360 359 358 357 356 356 357 356 356 356 356 353 355 354 353 354 354 358 355 356 357 356 356
350 353 357 363 365 365 364 363 362 362 362 361 361 361 360 360 359 359 359 360 360 359 357 357 356 355 358 358 358 356 350 350 352 354 352 356 356 355 357 356 356 357 356
353 354 357 356 361 363 364 363 363 362 362 361 361 361 360 359 358 357 358 357 358 358 357 356 356 356 356 357 357 357 352 349 354 355 351 355 355 355 356 355 353 354 355
352 353 357 355 356 359 360 361 361 361 362 361 361 360 360 359 357 356 356 357 357 357 356 355 354 354 354 355 355 355 356 355 351 354 354 355 356 356 355 354 354 353 353
350 353 355 354 357 360 360 359 361 360 360 361 360 360 359 365 363 360 359 357 357 357 355 355 355 356 355 357 357 355 357 355 348 353 353 351 356 355 355 354 356 353 352
346 349 353 355 355 358 356 361 361 359 358 359 359 360 362 362 363 359 359 355 353 357 357 356 356 355 354 352 349 349 346 356 352 352 352 351 352 352 354 356 354 356 352
346 349 352 355 358 357 356 357 358 358 358 359 363 362 361 363 361 363 362 361 357 353 358 358 358 354 357 354 350 346 349 354 351 350 349 350 352 351 352 354 355 353 355
346 348 351 354 357 357 357 356 356 356 358 357 358 363 361 358 361 362 359 354 356 356 359 359 357 356 354 355 347 347 350 345 348 351 352 351 353 352 351 353 355 355 354
346 348 350 354 356 357 358 355 355 358 357 357 359 360 358 357 359 360 358 357 358 359 358 355 358 359 353 349 353 347 349 351 352 351 353 351 352 351 350 352 353 356 355
348 349 351 353 356 358 357 358 356 357 358 358 356 357 360 356 357 358 358 355 359 360 359 356 357 353 347 351 351 352 347 345 350 352 350 352 351 351 351 353 352 355 356
349 351 352 354 356 357 357 358 356 355 356 354 354 358 358 359 360 361 359 355 357 361 361 363 354 356 344 344 341 348 347 346 345 349 351 352 351 351 351 352 353 354 353
351 351 353 353 355 356 357 357 355 355 355 354 354 355 357 360 362 361 358 356 359 361 364 363 361 358 349 344 344 343 348 347 346 347 350 350 353 351 351 353 352 353 351
351 351 351 354 354 355 357 357 356 357 355 355 355 354 357 359 361 361 359 358 361 359 363 362 358 354 347 344 343 345 345 345 345 343 347 350 352 353 353 351 355 353 351
352 353 353 353 355 356 356 356 354 354 353 354 354 356 360 360 361 362 359 360 361 358 357 356 356 351 346 346 340 341 343 343 344 347 347 348 352 353 354 356 353 352 354
351 352 353 353 356 354 352 349 349 349 351 354 356 359 362 362 363 363 359 360 360 356 358 357 352 348 342 348 341 341 342 341 340 345 347 345 345 346 350 352 354 356 353
349 352 354 355 357 356 354 354 353 354 353 357 357 360 361 362 363 362 362 360 360 355 357 356 352 345 343 345 340 340 333 336 338 338 345 344 344 341 341 347 353 354 352
348 352 355 358 359 358 358 355 355 357 358 356 356 358 360 362 363 364 363 361 361 358 355 356 352 350 341 343 343 338 330 328 336 339 339 343 345 342 341 345 346 350 349
349 352 356 358 360 358 361 357 357 350 349 352 355 357 359 362 363 363 363 362 362 359 358 357 354 350 345 338 342 343 344 342 331 330 335 337 340 338 343 342 341 344 347
349 349 352 357 359 360 361 361 355 355 353 354 355 360 363 363 362 362 363 363 362 359 360 358 354 350 345 341 340 340 341 341 343 335 331 330 335 336 337 339 340 341 344
348 348 351 355 357 359 360 360 360 359 357 353 354 353 354 356 358 361 362 363 363 361 360 358 356 353 348 344 343 342 337 335 334 335 333 334 331 334 336 337 338 338 340

GFSSE_sfc_thetae_024.txt.gz
Theta_e
342 349 355 359 358 359 358 360 362 364 365 363 362 363 363 361 361 361 361 361 359 360 360 359 358 356 358 357 357 356 355 355 355 355 357 355 355 356 356 355 357 355 359
351 354 359 359 360 360 360 360 363 363 363 363 363 363 361 362 362 361 360 360 359 359 359 358 358 358 358 357 357 357 356 354 353 354 356 356 356 355 354 354 360 358 359
352 352 359 363 362 361 361 363 363 363 363 363 362 362 362 362 361 361 361 360 360 360 359 358 358 357 356 356 355 356 356 355 355 354 354 352 350 353 352 356 358 358 358
353 354 356 360 363 363 363 364 364 362 363 362 362 362 362 361 361 360 359 359 360 359 359 359 357 356 355 354 353 354 355 356 354 353 354 350 350 353 355 354 357 356 357
351 353 359 363 366 364 364 364 365 363 362 363 362 362 362 361 360 360 360 360 360 360 359 358 357 355 353 353 353 355 354 356 353 353 354 356 352 355 355 355 356 357 353
353 354 360 364 364 365 364 364 363 362 362 362 362 361 361 360 360 359 360 357 359 359 358 358 357 357 354 353 354 356 356 357 356 350 353 353 356 356 356 354 356 355 354
351 355 359 366 366 366 364 363 363 362 362 362 361 361 360 361 360 360 360 360 360 358 357 357 356 358 356 357 357 355 357 354 355 351 351 355 357 356 355 355 356 356 356
351 354 357 365 366 366 365 363 362 362 362 362 361 360 360 360 359 360 361 361 360 357 357 357 356 358 357 358 358 351 355 350 355 352 352 354 356 356 356 357 356 356 355
351 352 355 358 362 363 366 362 362 362 362 362 361 360 360 359 358 358 359 359 359 357 356 356 356 356 356 357 357 353 352 347 358 358 349 353 355 356 358 356 356 356 356
350 351 353 356 356 361 361 362 362 362 362 361 361 360 359 358 357 358 357 359 357 356 355 355 354 354 354 355 355 357 355 353 354 357 351 355 355 355 355 356 352 357 354
350 351 351 352 355 359 359 360 361 361 361 361 360 360 360 362 362 361 360 358 356 356 354 354 354 355 356 359 356 357 359 352 352 352 351 356 356 355 355 356 354 354 350
348 350 350 351 353 355 353 359 359 356 355 357 356 359 360 362 365 360 359 356 354 356 356 355 354 356 358 348 348 354 344 350 352 353 349 354 352 352 354 355 355 354 351
349 349 351 352 355 354 354 355 355 355 355 358 361 360 363 365 365 363 360 359 356 356 356 355 354 354 356 351 347 344 345 347 347 347 350 353 351 352 351 355 354 355 353
348 350 352 354 355 355 354 353 354 352 354 354 356 362 362 359 362 364 359 361 358 357 359 358 354 355 358 356 348 346 345 344 345 346 351 353 353 352 352 353 356 353 354
346 349 351 354 357 357 358 353 351 353 352 354 357 359 359 360 365 365 363 361 361 360 358 359 357 353 356 356 355 347 342 344 345 346 348 353 352 350 350 353 355 356 355
348 349 352 354 357 358 357 359 356 356 355 356 354 354 361 360 365 363 362 361 362 362 359 360 358 359 351 353 350 348 344 344 345 347 346 351 352 350 350 354 353 357 356
349 351 352 355 357 359 360 360 359 355 355 354 352 357 360 362 364 367 362 360 361 366 360 361 359 357 351 346 347 347 346 344 343 345 350 348 351 353 351 352 353 354 354
352 353 355 354 356 358 359 360 357 355 354 352 351 353 360 362 366 366 365 358 363 364 360 358 356 352 354 351 346 346 345 343 345 345 344 348 350 349 351 352 352 353 353
354 356 357 358 357 359 361 360 360 358 355 353 352 352 361 363 365 364 365 359 364 361 361 357 358 354 349 347 345 345 346 342 343 343 346 348 347 349 349 351 351 351 352
354 357 358 358 360 362 360 361 357 354 354 354 353 353 360 362 364 365 362 361 359 362 361 360 359 355 349 341 338 341 343 343 343 344 344 343 347 348 350 353 353 350 350
353 356 357 357 361 360 356 354 352 349 351 352 353 359 363 365 367 368 363 361 359 359 361 358 356 353 346 346 340 339 342 343 342 343 343 340 341 344 348 349 350 353 351
352 355 358 359 361 361 358 358 354 353 351 353 355 360 364 365 369 367 372 364 361 363 361 359 359 350 349 343 341 341 333 336 339 342 344 341 340 338 340 345 349 352 353
350 354 357 360 361 362 363 358 356 355 354 352 354 357 362 366 367 369 367 366 366 361 365 361 359 354 346 343 346 339 332 331 335 339 342 342 343 340 341 343 343 347 348
350 354 358 361 362 363 364 360 362 352 350 352 356 356 359 366 365 366 368 367 368 361 363 365 358 357 355 342 342 343 346 344 334 330 339 340 340 339 342 341 341 343 344
350 352 356 362 366 366 365 366 358 359 355 356 355 365 369 368 367 364 367 367 366 366 364 364 361 360 354 347 338 341 343 341 343 335 331 334 339 339 340 341 342 341 344
350 353 355 362 368 367 366 363 367 366 362 355 358 355 356 358 361 365 366 365 366 366 365 364 364 361 358 352 342 343 339 336 335 335 332 336 334 337 339 340 341 340 341

GFSSE_sfc_thetae_027.txt.gz
Theta_e
343 349 354 358 358 359 361 361 364 364 363 363 361 364 362 361 361 361 360 360 360 361 361 359 358 359 358 358 358 355 355 355 356 358 355 354 356 356 355 356 357 354 360
346 349 355 358 359 358 360 363 365 364 363 362 364 362 362 362 361 361 360 360 359 360 360 359 358 358 358 358 358 357 355 354 355 356 356 358 356 353 356 358 361 358 359
344 350 359 361 360 360 361 363 364 363 362 363 362 361 362 362 360 360 360 361 361 360 360 359 358 357 357 356 356 356 355 356 354 355 355 350 350 352 356 357 360 359 359
344 353 355 362 362 361 363 364 363 362 363 362 362 363 361 362 361 360 360 361 360 360 359 358 357 356 355 355 355 354 356 354 352 353 354 351 346 354 354 357 357 358 358
352 353 357 362 363 363 364 363 363 362 363 363 362 361 361 361 360 361 359 360 361 360 359 357 357 355 354 354 353 355 354 354 353 355 349 355 352 354 356 356 356 355 356
351 352 360 363 364 364 364 363 362 362 363 363 362 362 361 361 360 361 358 359 359 359 358 357 357 357 356 355 355 355 355 356 354 352 354 356 353 356 354 355 357 354 353
350 354 359 366 366 365 363 363 362 362 363 362 362 361 361 361 360 360 361 361 359 358 358 358 359 358 358 358 355 355 355 355 352 351 354 353 352 357 356 357 356 357 355
349 351 358 364 366 366 363 362 363 362 362 361 361 361 361 361 361 361 361 360 358 358 358 357 358 357 357 358 353 354 353 354 353 349 353 356 357 357 357 357 357 357 356
351 350 354 357 362 365 364 363 362 362 362 361 360 360 360 360 359 359 359 359 359 358 357 357 357 357 357 357 355 353 354 349 356 349 351 353 358 357 357 357 358 357 356
350 349 351 354 356 362 360 362 361 361 361 361 361 360 360 359 360 359 360 359 357 356 356 354 354 355 357 358 358 356 354 354 355 353 354 354 358 356 357 352 357 356 357
348 348 349 351 355 360 357 360 362 361 361 361 360 360 360 358 360 359 361 358 355 356 355 353 354 354 356 358 361 360 359 354 350 352 351 359 358 355 356 355 354 353 355
345 346 348 350 352 354 351 359 359 356 355 357 357 357 358 362 364 359 361 359 357 356 356 354 355 354 359 350 350 359 352 347 349 348 350 358 355 356 355 356 355 353 351
348 346 347 350 354 352 357 353 352 352 353 355 358 360 365 360 359 351 356 353 354 359 354 355 353 353 350 351 345 345 344 347 344 349 353 357 353 352 355 356 356 354 352
347 347 347 351 354 353 353 351 350 350 351 352 355 361 363 358 358 361 358 358 358 357 356 356 356 356 351 353 350 343 342 343 343 350 353 357 355 353 352 356 355 354 355
346 347 348 352 359 361 358 352 350 351 349 351 355 358 358 359 361 361 360 361 361 357 354 354 358 355 355 352 351 345 343 342 344 347 349 358 355 352 354 354 357 354 355
348 348 350 353 357 358 359 363 354 352 352 352 352 354 361 361 361 361 360 358 358 359 357 356 357 357 351 351 347 344 344 344 343 347 348 351 358 354 352 355 356 358 356
348 350 351 353 356 357 358 359 355 353 352 352 352 357 360 363 364 366 362 358 359 363 362 360 358 350 350 345 344 345 348 343 343 343 347 348 351 356 354 356 355 357 357
349 351 353 352 354 356 359 359 356 354 353 352 351 353 358 362 365 366 362 359 359 361 357 356 360 347 349 344 342 343 341 342 343 342 343 348 348 348 354 355 354 355 354
351 352 353 355 355 358 364 360 359 363 355 353 351 350 362 363 365 365 359 363 363 359 357 355 353 352 344 341 341 341 343 340 348 342 342 346 346 348 348 355 356 354 354
352 355 357 356 364 367 362 366 357 355 354 353 351 350 365 363 365 365 362 362 361 354 358 357 358 350 346 339 337 340 341 340 344 343 342 343 344 346 350 352 351 351 353
352 356 360 362 368 363 358 355 354 350 353 351 352 358 361 362 365 368 361 362 361 363 359 357 354 352 342 345 339 339 340 342 342 341 341 339 340 343 344 349 352 351 350
351 356 364 365 369 366 360 362 358 357 351 351 353 362 361 363 367 368 367 362 363 359 360 359 358 352 342 342 342 338 334 335 337 339 340 339 339 338 339 344 349 353 351
350 357 362 367 369 368 368 364 363 360 357 351 353 353 359 364 366 369 365 363 364 365 364 361 358 356 345 340 349 340 332 334 334 340 341 340 342 338 341 342 344 346 347
351 354 364 367 369 368 371 362 363 351 348 349 352 354 358 366 364 366 368 364 370 361 365 363 358 359 356 343 340 342 348 346 338 336 341 339 341 340 341 341 341 343 344
349 351 358 368 369 369 369 368 359 358 350 352 352 365 365 371 367 363 369 370 369 362 369 364 363 362 355 350 339 339 344 338 342 339 332 340 340 339 341 340 341 342 344
348 350 356 367 369 371 370 368 370 362 359 352 355 354 354 355 362 369 366 372 370 369 367 364 366 364 360 357 346 345 341 338 337 336 334 338 336 341 339 340 341 340 342

GFSSE_sfc_thetae_030.txt.gz
Theta_e
346 351 359 359 362 364 365 366 365 366 365 365 365 364 365 366 364 363 363 363 364 362 361 359 360 359 359 359 357 356 355 356 358 356 355 357 358 358 358 355 360 356 362
348 352 357 359 361 364 365 366 366 365 365 366 364 364 364 364 364 363 364 361 363 362 359 359 359 359 359 358 358 356 355 355 357 356 358 357 355 358 358 360 359 358 361
346 350 356 361 362 362 365 367 365 366 366 364 363 364 363 362 361 363 363 363 362 361 360 360 358 359 358 356 357 356 355 355 355 354 354 351 348 358 357 359 361 360 359
346 348 353 362 363 363 363 366 365 363 363 363 362 363 363 364 364 363 362 361 361 360 359 358 358 357 357 356 356 355 354 353 354 353 353 352 344 355 358 358 358 359 359
347 349 357 364 364 364 366 366 365 364 364 363 362 362 361 361 363 361 362 362 360 360 359 358 357 356 355 355 356 353 354 352 353 353 353 352 349 355 357 356 357 357 359
348 351 360 362 363 364 366 365 364 364 363 363 362 363 362 361 361 360 360 360 360 359 359 359 359 357 356 356 356 353 353 355 355 351 353 353 352 356 357 357 356 355 356
349 354 354 365 365 366 365 365 365 363 362 363 364 362 361 361 361 362 362 360 360 360 360 360 360 359 358 357 356 353 354 356 355 352 350 351 355 360 358 357 357 357 355
350 351 356 364 365 366 364 365 364 363 361 362 362 362 362 362 363 362 362 360 360 360 359 359 358 357 358 355 356 355 354 355 355 353 351 352 359 360 358 358 357 357 357
349 351 356 359 362 364 365 365 363 362 361 361 361 360 361 360 360 361 362 362 359 359 358 357 356 356 355 357 354 357 354 352 354 354 352 354 360 358 359 358 358 356 356
346 350 355 356 355 358 359 363 362 361 361 360 360 360 360 359 358 358 363 363 359 358 356 355 354 354 356 358 356 355 355 355 350 355 351 354 360 359 355 358 357 357 357
345 347 349 350 357 360 359 359 361 361 360 360 359 358 357 364 357 359 363 362 358 356 354 353 354 355 358 360 363 360 358 353 348 349 350 359 360 358 356 355 355 356 357
342 344 347 350 354 355 351 360 361 357 356 358 355 338 342 358 360 360 359 364 359 355 356 357 359 360 354 351 352 363 355 353 351 348 352 360 360 357 357 356 355 352 356
343 344 347 351 356 353 354 356 356 355 355 355 353 338 345 357 357 356 358 356 358 352 353 354 354 356 353 353 350 349 350 350 348 347 353 359 360 359 356 356 356 353 351
344 345 346 352 357 354 354 351 353 352 352 355 359 361 359 354 353 360 356 361 353 355 354 357 355 358 358 357 348 351 340 343 347 348 354 358 358 357 357 357 357 355 353
345 345 348 352 357 363 359 352 351 355 353 356 360 363 353 351 362 364 364 352 352 351 350 352 358 357 357 348 352 349 342 344 347 347 350 360 359 358 356 357 356 356 356
348 345 350 353 358 366 365 371 361 364 356 357 355 358 365 362 365 369 365 354 359 353 350 352 349 349 350 349 354 348 343 344 346 350 348 354 359 358 359 357 357 356 355
346 349 350 353 356 362 365 369 367 363 352 355 357 364 364 369 370 360 363 360 363 366 364 361 356 351 345 347 347 349 343 347 344 344 346 346 353 358 358 360 359 360 356
347 350 352 350 353 357 360 364 363 357 358 359 360 360 364 369 373 371 359 355 352 362 359 358 357 349 349 346 346 343 345 343 343 345 347 349 348 347 356 360 358 359 356
350 354 354 355 354 356 362 361 360 361 363 362 364 359 364 368 369 370 367 362 364 353 360 358 358 358 346 345 344 344 346 342 339 341 344 348 349 347 347 358 358 358 354
352 355 356 354 358 358 359 363 358 358 360 361 363 362 363 366 369 372 366 368 362 353 362 361 361 355 351 344 338 343 343 343 346 345 343 345 350 349 347 349 353 351 356
352 354 355 357 364 359 358 355 356 351 357 358 363 367 367 367 370 373 369 354 365 358 363 361 359 356 348 348 344 343 344 343 343 344 339 340 343 344 346 349 350 348 351
350 355 356 358 363 362 359 359 357 358 357 357 360 366 365 365 367 368 368 364 364 362 363 364 362 354 348 346 346 338 334 338 339 340 343 338 341 340 341 350 349 350 350
350 355 358 360 365 362 363 363 363 365 365 355 356 360 361 366 367 368 367 368 364 364 360 363 362 359 350 346 353 347 333 330 338 341 340 341 341 341 340 344 347 350 351
350 356 361 362 364 363 366 361 360 353 349 353 355 357 358 363 367 368 367 367 369 365 360 361 365 362 358 345 345 346 350 347 336 331 341 341 343 339 342 342 342 342 346
350 355 360 363 364 365 362 366 359 355 354 353 356 362 361 363 365 365 367 368 369 367 363 362 366 363 363 353 345 344 346 346 345 339 334 338 341 343 343 342 341 342 345
350 354 359 362 362 365 364 361 364 357 356 352 353 354 358 361 363 367 369 367 369 365 366 364 366 367 363 361 355 353 344 340 340 339 336 336 336 341 343 342 340 343 345

GFSSE_sfc_thetae_033.txt.gz
Theta_e
344 350 362 362 363 364 364 364 365 364 365 365 366 367 364 362 362 363 365 363 361 362 360 359 359 360 359 358 356 355 357 358 356 355 358 359 360 360 360 360 361 356 361
347 351 362 362 363 363 366 366 365 363 365 365 366 366 364 362 361 362 363 362 361 361 360 359 359 359 358 358 357 357 355 358 358 358 355 358 360 359 362 360 360 357 361
347 351 357 362 364 363 367 365 364 364 363 365 366 365 363 361 363 364 362 361 361 360 360 360 360 359 357 357 357 356 357 356 356 357 356 347 353 358 359 360 361 360 360
347 350 355 363 364 363 365 366 366 362 362 365 365 365 364 362 364 362 361 361 360 360 359 359 358 358 357 356 356 357 355 355 354 353 350 346 351 358 359 359 359 360 359
344 349 355 365 364 363 365 365 365 365 363 364 365 362 363 365 363 361 362 360 360 359 360 358 358 357 356 355 356 355 354 355 353 352 348 344 347 356 357 358 357 358 358
343 353 361 364 363 364 365 364 364 363 364 364 365 363 362 361 361 361 360 360 359 359 360 359 358 357 356 356 356 356 354 354 355 352 350 353 349 358 358 358 357 358 359
346 354 357 366 365 365 365 363 364 364 364 365 366 362 362 362 362 361 360 361 360 360 360 360 359 358 357 356 356 356 355 355 349 350 351 351 354 360 357 357 356 356 358
350 353 357 364 365 366 363 363 364 362 362 366 366 363 362 363 365 364 360 360 360 359 359 359 358 358 356 354 355 355 356 360 351 350 351 352 359 360 359 358 357 357 358
348 352 356 359 360 363 366 363 362 362 362 363 362 362 362 361 361 362 363 362 359 359 359 358 358 359 358 356 353 355 356 359 349 350 352 354 360 359 359 359 357 357 358
351 354 355 356 355 355 357 363 362 361 361 362 361 360 359 358 359 360 363 364 359 358 358 357 360 362 361 360 355 354 355 358 350 348 352 354 360 358 359 358 357 356 357
347 350 351 352 352 352 354 357 361 361 361 361 360 359 354 352 353 354 360 363 358 359 359 361 361 365 360 354 358 357 355 348 346 348 350 359 360 356 358 356 358 357 357
342 345 347 349 351 351 354 352 353 354 353 354 348 339 341 345 350 355 358 364 361 361 361 364 362 361 361 348 347 358 351 349 347 347 350 360 361 358 356 355 354 357 357
340 343 344 348 351 348 351 351 352 351 350 351 338 344 346 352 352 352 351 352 353 349 347 350 350 351 348 348 344 348 354 349 345 346 354 360 361 358 358 356 352 353 356
338 340 344 347 349 346 349 349 350 349 349 351 343 346 346 348 350 353 351 352 349 348 349 351 351 350 348 347 343 342 350 347 345 347 354 360 361 359 358 357 356 352 351
337 339 343 346 348 348 346 346 345 346 347 351 346 346 349 342 347 350 354 349 349 349 339 340 349 344 347 345 342 339 345 345 345 346 349 359 360 360 358 357 357 356 354
338 339 343 346 349 347 347 343 343 350 345 352 353 352 349 352 349 352 351 347 346 347 343 345 345 339 341 344 343 340 337 344 344 344 349 353 359 360 359 359 357 356 355
341 341 343 344 349 349 348 351 350 349 345 344 353 353 353 352 352 350 348 351 351 349 347 350 346 342 340 343 342 339 335 341 344 343 347 350 353 358 361 360 361 359 357
342 343 345 346 348 350 349 350 350 346 349 347 351 351 352 353 355 351 352 350 348 354 354 349 347 346 343 344 336 339 337 334 341 342 344 344 347 347 357 360 359 360 357
342 344 345 345 346 350 349 351 349 349 348 351 353 350 350 354 355 355 351 352 352 350 349 349 347 349 341 337 338 336 334 336 335 343 341 343 343 347 349 359 358 358 356
344 344 345 346 345 348 350 351 347 346 350 349 349 349 352 354 357 356 352 351 350 347 348 350 344 339 333 332 337 335 332 336 336 336 344 344 343 344 347 349 350 352 355
345 344 346 346 347 347 350 348 347 344 347 345 347 352 354 356 357 356 355 350 353 347 349 347 343 342 332 336 330 330 330 330 335 336 341 342 343 342 343 345 345 346 348
344 345 345 348 348 347 350 347 348 348 348 347 347 354 356 357 358 357 353 351 352 351 349 347 346 342 336 332 334 332 324 327 331 332 330 333 337 340 344 345 343 344 346
344 344 347 347 350 349 351 351 349 350 348 345 345 350 355 356 359 356 355 353 353 352 350 349 349 344 335 334 338 334 322 320 326 333 331 328 333 332 340 344 345 344 344
345 346 348 349 355 352 353 351 348 345 344 344 343 346 352 355 357 358 356 354 354 350 348 349 352 346 342 329 331 337 337 337 324 322 330 330 333 331 333 339 341 344 335
346 347 347 350 355 353 354 352 351 347 346 344 344 345 348 351 356 360 358 356 354 355 350 348 350 348 349 340 330 330 332 333 333 329 322 329 331 332 333 333 334 337 335
346 349 351 351 354 353 354 354 351 348 344 344 343 343 349 352 354 356 358 357 356 353 352 351 352 351 347 348 341 337 329 328 329 328 328 328 326 330 332 330 334 334 334

GFSSE_sfc_thetae_036.txt.gz
Theta_e
343 350 360 363 364 362 362 362 364 363 364 365 364 363 362 362 363 364 364 361 360 360 359 359 360 359 357 356 355 358 357 356 358 359 360 360 360 360 361 361 361 355 360
347 352 361 364 364 362 364 363 363 364 364 363 364 363 362 362 361 362 363 360 360 360 359 360 359 359 358 358 356 357 358 359 359 356 360 360 360 360 360 361 359 357 360
348 354 358 364 364 364 364 364 363 363 362 363 363 363 363 363 363 362 362 361 360 360 360 359 358 357 358 356 357 357 357 358 359 356 359 351 352 359 359 361 360 359 359
350 351 356 363 365 365 364 364 364 361 362 364 363 363 363 362 362 361 361 360 360 360 359 359 358 358 358 357 357 356 356 355 355 355 348 348 350 359 360 359 359 359 359
349 352 356 364 366 365 364 363 364 362 362 362 363 362 362 362 362 362 361 360 360 359 358 357 356 356 356 356 355 355 355 356 356 352 344 346 348 356 358 359 359 359 358
349 352 361 363 364 364 363 364 363 362 363 362 362 362 361 361 362 361 361 360 360 360 359 358 357 356 356 356 355 355 356 357 355 348 349 353 349 358 359 358 358 358 357
349 355 358 365 365 364 362 363 363 363 363 363 363 363 363 361 361 361 361 360 361 361 360 359 358 357 356 356 354 356 356 357 349 350 349 350 353 359 357 355 358 358 357
351 354 358 364 365 365 362 363 363 364 362 363 363 362 362 364 361 361 361 360 359 359 359 357 358 358 355 356 355 356 357 357 351 350 350 352 358 360 357 356 357 357 358
353 354 356 357 359 362 364 363 362 362 363 363 362 362 362 362 361 361 361 361 359 358 358 358 357 357 357 355 354 355 358 357 348 349 353 352 360 359 359 358 357 357 357
351 354 354 354 354 355 357 362 362 362 362 362 361 361 361 360 360 360 362 363 358 357 356 356 357 359 358 357 356 355 357 357 348 350 351 353 360 360 359 356 357 357 356
351 353 354 352 352 353 354 357 360 362 362 361 360 360 357 351 351 355 357 361 357 355 355 357 362 361 358 357 359 356 356 347 346 349 350 359 359 358 357 357 357 356 356
345 350 351 350 350 351 356 352 351 354 353 353 351 346 346 345 346 353 357 360 358 356 359 362 360 358 356 346 346 357 350 346 347 347 351 360 359 358 355 357 358 357 356
345 348 348 348 349 349 350 349 349 350 351 350 344 338 342 348 349 351 350 352 349 349 346 347 347 349 349 346 346 347 351 350 348 346 355 360 360 357 356 352 357 357 357
343 345 346 348 349 344 349 348 349 349 348 348 336 343 345 346 348 348 347 347 347 347 347 347 348 349 348 343 341 341 349 346 344 347 354 360 359 358 357 355 351 354 355
340 342 344 348 347 344 344 345 347 346 347 349 342 343 347 344 346 348 350 349 348 347 344 337 347 345 343 341 340 348 344 342 343 347 349 360 361 360 357 357 355 352 351
339 341 343 346 346 346 344 341 342 344 345 348 346 345 348 343 347 350 349 347 348 347 342 340 344 337 336 339 341 345 341 341 343 346 348 352 360 360 359 356 357 356 355
338 340 341 345 346 345 343 339 340 343 346 348 349 349 348 349 348 348 347 345 345 345 344 344 344 340 341 340 339 337 339 340 341 344 347 347 353 360 360 359 358 357 355
338 338 341 346 347 345 344 345 346 344 342 347 349 350 350 349 352 350 347 348 349 347 347 345 344 343 342 342 335 337 336 340 340 342 344 346 347 347 358 360 359 359 357
340 338 341 343 347 344 346 346 346 345 344 345 347 348 350 352 354 351 349 348 346 346 345 345 343 344 338 340 339 333 334 334 340 341 340 342 343 345 350 357 357 355 355
340 341 341 341 346 345 346 344 344 343 344 348 351 348 349 351 354 352 348 350 348 343 346 346 340 335 328 330 335 332 330 334 338 337 340 342 342 344 346 348 348 349 356
341 341 341 341 344 346 344 342 339 338 340 344 346 348 348 351 353 352 351 349 347 344 346 343 340 337 328 332 328 326 326 331 333 334 340 339 340 342 344 345 345 347 348
340 341 341 341 342 346 345 345 341 340 342 344 344 348 349 352 354 353 351 348 349 346 344 343 343 338 331 331 331 325 320 323 329 331 335 339 338 340 341 344 343 342 345
340 341 342 342 342 345 346 344 344 346 343 343 341 348 350 353 355 354 351 350 350 349 346 345 344 339 328 332 334 328 320 317 322 329 327 331 335 335 339 341 341 342 343
341 342 344 344 344 344 347 344 344 343 343 343 341 344 350 353 355 354 353 352 350 349 347 347 348 343 335 326 330 337 333 330 319 319 327 327 330 331 336 341 342 342 341
342 342 344 346 345 345 348 345 344 343 344 343 341 341 348 351 354 354 352 351 350 349 345 346 348 345 341 335 325 329 329 330 330 324 320 323 329 328 332 339 341 340 336
342 343 344 347 345 346 349 347 345 343 342 341 340 340 344 349 351 353 354 351 350 351 349 345 345 347 344 340 333 330 328 326 326 326 323 324 323 326 330 331 332 338 333

GFSSE_sfc_thetae_039.txt.gz
Theta_e
342 349 362 362 362 362 362 361 363 363 362 362 363 362 362 363 362 363 361 360 359 359 359 360 358 357 355 356 357 356 356 357 357 357 360 360 361 361 361 361 359 355 359
346 351 361 363 362 362 363 362 363 362 362 362 362 362 362 363 363 361 359 360 359 359 360 359 359 358 356 355 357 357 356 356 358 359 360 360 361 361 361 360 360 356 358
349 352 357 363 364 362 362 363 362 361 362 362 362 361 361 361 361 361 360 360 360 359 358 358 358 357 357 357 358 358 358 356 355 358 358 351 353 359 359 360 359 358 358
351 353 356 363 364 363 361 363 363 362 362 361 362 362 362 362 362 361 361 361 360 359 358 357 358 357 356 356 356 356 357 357 355 357 346 348 352 360 360 359 358 358 358
350 353 357 364 364 363 362 362 361 362 360 362 362 361 362 362 361 360 360 359 359 358 357 357 357 357 355 355 355 355 356 356 356 349 345 346 349 356 359 359 358 358 358
351 353 361 362 363 361 362 362 362 361 361 362 363 362 362 362 360 360 360 360 359 358 358 357 357 356 356 354 354 354 356 357 354 346 348 352 348 358 358 359 358 358 358
348 354 357 364 364 362 363 363 362 362 361 362 363 361 360 361 361 360 360 360 360 360 359 358 358 357 356 355 355 356 358 356 349 348 348 350 352 360 357 357 358 358 357
351 354 357 363 362 363 361 363 362 363 362 362 362 362 362 361 361 361 361 360 360 358 358 358 357 356 356 355 356 355 357 356 351 350 350 350 357 358 355 358 358 357 357
353 354 355 357 357 362 362 362 363 362 363 363 362 362 362 361 361 361 360 360 359 358 357 357 357 357 356 356 356 357 357 356 348 349 351 351 359 358 355 356 357 357 356
351 353 352 353 352 354 355 361 362 362 362 362 361 361 360 361 360 360 361 362 359 358 357 356 356 357 357 357 357 359 358 356 348 350 350 352 359 359 358 358 357 357 356
350 351 350 350 351 352 353 356 361 362 361 361 359 360 356 349 350 354 356 358 358 357 356 357 358 354 356 357 356 359 357 347 347 348 349 358 359 357 356 356 357 356 355
345 350 349 349 349 351 355 351 351 354 352 352 352 349 346 347 345 353 356 357 356 357 358 358 358 357 354 344 345 355 346 347 348 348 350 358 358 355 356 356 356 355 355
346 350 349 348 348 349 351 348 348 349 350 349 345 342 343 345 346 349 349 351 345 349 346 346 348 348 346 345 345 347 348 347 346 348 353 359 358 355 355 357 358 356 355
344 348 348 347 347 346 347 347 347 348 348 347 342 339 341 344 346 346 346 346 346 344 345 345 345 347 345 340 339 344 347 348 344 346 352 360 359 357 352 353 356 356 356
343 345 345 346 346 345 344 344 345 346 347 348 338 340 344 344 345 347 347 344 345 345 343 336 344 342 340 339 340 346 346 342 343 348 349 359 360 358 356 353 351 353 354
343 343 344 345 346 343 342 341 344 344 346 346 345 339 345 341 343 344 346 345 345 345 343 339 342 334 335 338 339 344 340 341 343 347 348 351 361 359 356 357 354 351 351
341 342 342 344 346 342 341 339 341 343 344 344 347 344 346 343 346 348 346 344 344 344 341 343 344 342 335 338 338 338 339 340 341 344 346 347 352 358 356 356 357 356 355
340 339 341 346 345 342 341 338 339 341 342 343 346 346 347 347 347 345 345 344 345 344 344 343 342 342 338 338 335 333 337 338 339 342 345 346 347 349 356 357 356 357 355
338 338 339 342 343 342 341 341 341 341 341 343 346 347 347 349 351 347 346 346 347 344 345 344 343 343 338 337 339 331 333 336 338 341 341 343 343 344 349 355 357 357 355
337 337 339 341 343 343 341 342 342 342 343 344 345 346 348 350 352 348 347 345 346 343 342 342 337 334 327 331 334 329 330 333 336 336 337 340 340 342 346 347 347 349 354
338 336 338 339 341 343 341 340 338 337 339 343 345 347 347 349 352 348 346 347 345 342 344 341 338 330 328 329 325 323 326 328 333 334 337 337 339 341 343 344 344 345 346
337 337 337 339 340 344 343 344 339 337 338 341 343 345 347 349 351 350 348 347 347 343 344 342 339 335 327 330 325 320 318 322 327 329 334 337 336 339 341 343 342 342 342
337 338 338 338 339 344 344 341 341 341 340 339 340 344 345 349 351 352 350 347 346 345 343 342 342 333 325 331 332 325 318 316 320 326 327 332 336 335 336 339 341 341 342
338 340 340 339 339 343 343 342 340 338 336 336 338 343 345 349 351 353 350 348 347 348 345 344 345 340 328 328 328 336 329 325 318 317 324 327 332 333 334 337 340 340 341
339 340 340 340 340 341 343 343 341 337 336 340 339 340 345 347 351 353 351 349 347 347 345 346 344 341 336 326 324 329 328 329 325 320 317 322 328 328 329 336 339 339 339
340 340 341 340 339 340 343 342 341 340 338 339 338 338 342 345 348 351 351 348 347 347 345 344 346 344 342 336 327 327 327 326 325 324 321 321 322 325 328 332 336 338 338

GFSSE_sfc_thetae_042.txt.gz
Theta_e
342 348 359 360 360 362 361 362 362 362 362 362 361 361 361 362 362 362 361 359 359 359 358 357 355 354 355 355 355 356 356 358 359 358 361 361 361 362 360 360 360 355 360
345 349 361 361 361 361 361 363 362 362 363 362 361 363 362 362 362 361 360 359 359 360 360 359 357 355 355 356 355 355 358 357 359 360 361 360 360 360 360 360 359 357 359
347 351 356 362 362 360 362 363 362 362 362 362 362 362 361 360 361 360 360 360 359 360 359 359 358 357 356 357 357 357 355 358 359 359 361 356 356 359 360 361 359 359 359
349 351 355 362 362 361 362 362 362 363 363 362 361 362 361 360 361 360 360 360 360 358 357 358 357 357 357 356 356 358 357 356 358 355 352 353 355 360 360 360 359 358 358
351 352 356 363 363 361 362 362 363 360 361 362 361 360 360 360 361 360 360 360 359 359 358 358 357 356 355 355 355 354 356 356 356 351 351 353 357 358 359 359 358 358 359
352 354 361 362 361 362 362 362 361 361 362 361 361 360 360 361 360 361 360 359 359 358 359 358 356 356 354 354 355 356 357 357 353 350 353 355 356 360 359 358 358 358 357
349 353 356 364 363 362 362 362 361 361 361 362 361 360 361 360 361 361 360 360 359 359 358 358 357 355 355 355 355 358 358 356 350 352 353 354 357 360 359 358 358 357 357
351 353 356 362 361 363 362 362 361 361 362 361 362 361 361 362 361 361 360 360 359 358 358 357 357 356 356 355 357 358 357 355 352 353 354 354 358 357 358 358 358 357 357
353 353 354 354 358 362 362 362 363 361 362 362 361 362 361 361 361 361 360 359 358 357 357 357 356 356 356 356 357 359 357 356 352 353 352 355 358 356 357 357 357 357 356
351 353 353 351 352 354 356 363 362 363 363 363 362 361 361 361 360 360 361 360 358 357 357 356 356 356 356 357 359 358 357 357 353 353 354 356 356 357 356 357 356 357 356
350 350 350 350 351 353 353 358 361 362 361 361 360 360 356 352 352 356 357 359 357 356 357 358 357 357 356 357 359 358 357 352 352 352 354 356 357 356 356 357 356 356 355
345 350 349 349 350 351 355 353 354 356 354 354 353 350 349 350 350 354 356 357 356 357 358 358 357 357 352 348 353 357 350 351 352 352 355 357 359 355 355 356 356 355 355
344 348 348 349 349 350 352 350 350 351 352 352 348 346 348 348 349 352 351 353 348 350 348 350 351 351 349 348 348 349 348 350 351 352 355 358 358 354 356 356 355 355 355
343 346 348 348 348 348 349 349 348 349 350 349 346 342 344 345 348 350 350 350 349 348 348 348 349 348 347 344 347 350 349 349 348 351 355 358 356 353 355 356 357 356 354
342 346 348 348 346 347 346 347 347 347 349 349 344 343 345 347 348 350 350 347 349 349 345 342 349 343 344 344 343 350 349 347 347 351 354 356 356 355 351 351 355 354 354
342 345 347 346 346 345 344 344 345 346 348 349 345 340 346 346 346 348 349 350 348 348 347 345 347 340 341 344 348 348 347 346 348 351 353 356 356 355 356 353 351 350 352
342 344 344 345 346 343 343 342 344 345 347 347 348 346 345 347 347 349 348 349 348 350 346 349 349 346 343 343 345 345 344 345 347 349 351 353 356 355 354 355 355 353 352
342 342 343 347 345 342 341 341 341 344 345 345 347 349 348 350 349 349 348 348 350 350 350 350 347 345 343 340 341 341 343 343 344 347 350 351 352 353 355 354 355 356 355
341 341 340 343 343 342 341 340 339 342 343 344 347 348 349 350 351 350 348 348 351 351 351 350 347 347 344 343 340 337 341 342 342 344 347 349 349 350 354 354 355 355 355
340 340 340 341 342 342 340 341 342 342 342 344 347 348 349 351 353 350 348 348 350 349 349 349 344 337 336 338 335 332 335 338 342 342 343 345 345 348 351 354 353 353 355
339 337 339 339 340 341 340 339 340 340 343 346 346 349 350 352 355 352 350 348 349 346 349 347 343 337 335 335 333 332 332 334 339 341 342 343 344 346 349 351 350 350 350
336 336 338 339 340 343 343 342 342 340 342 345 347 349 350 352 354 352 349 349 347 347 349 347 346 340 334 336 330 328 327 332 333 334 340 342 342 344 346 348 348 349 349
337 335 337 338 339 343 343 342 341 341 342 342 344 346 347 351 353 355 353 351 351 348 347 348 346 339 333 338 337 331 325 325 326 332 335 339 343 342 343 345 347 347 347
338 338 337 338 339 343 343 342 341 339 338 339 341 346 347 350 352 355 354 352 351 351 349 349 348 344 337 337 336 338 335 332 327 327 331 334 335 340 342 342 344 346 346
340 338 339 338 339 341 344 343 342 341 338 339 341 344 347 348 351 355 354 352 351 352 350 351 350 347 340 336 334 337 336 335 331 327 326 330 334 337 339 340 344 346 346
340 339 340 338 338 340 343 343 342 341 338 339 339 340 344 347 349 352 355 352 353 351 351 351 351 349 347 341 335 336 336 336 333 331 328 329 329 335 337 337 340 344 346

GFSSE_sfc_thetae_045.txt.gz
Theta_e
345 353 360 360 360 361 361 361 361 361 361 361 362 360 360 361 361 363 360 359 358 357 358 356 355 355 357 356 358 358 359 359 361 361 362 361 362 361 361 360 361 356 360
349 356 361 363 362 361 363 363 362 363 361 361 361 361 362 363 361 361 360 359 359 360 359 358 355 356 356 355 356 358 357 358 360 361 361 362 362 361 361 360 360 358 359
349 355 358 362 362 362 363 362 363 363 362 362 362 362 362 361 361 360 360 360 360 359 359 358 358 356 357 358 356 356 359 359 360 361 359 358 358 361 360 360 360 360 359
349 356 356 361 363 362 363 364 362 363 361 361 361 362 361 361 360 360 360 359 359 358 358 357 357 358 357 358 358 357 357 359 358 358 356 356 357 360 360 359 359 359 359
351 357 358 361 363 362 361 363 362 362 362 362 361 361 361 360 360 360 360 359 359 357 359 357 357 355 355 354 355 357 356 357 356 356 357 359 358 360 359 359 359 358 359
353 354 360 361 362 363 362 363 361 362 362 362 361 361 360 361 361 360 360 359 359 359 358 357 356 355 355 355 356 356 357 355 354 356 356 358 358 358 359 359 358 359 357
351 356 356 363 364 362 362 361 362 362 361 361 361 361 361 361 361 361 360 360 359 358 358 357 356 356 355 355 358 359 359 355 353 356 356 357 358 357 359 358 358 357 358
350 354 358 361 362 363 362 362 362 361 361 362 362 362 362 362 362 361 360 359 359 359 358 357 356 356 355 356 358 358 356 353 353 355 357 358 358 359 358 358 358 358 356
352 354 358 356 361 362 362 362 362 361 362 362 363 362 362 362 361 360 359 359 358 358 357 356 355 357 357 357 359 358 357 357 355 355 352 351 358 358 358 358 357 357 356
351 355 357 356 360 361 361 362 362 362 362 363 363 362 361 362 361 360 361 361 357 356 355 355 356 355 358 359 358 359 357 356 353 354 354 355 358 356 358 357 357 356 356
350 354 354 357 358 362 362 361 362 362 363 362 362 362 361 360 360 357 359 358 357 357 356 357 355 356 357 359 359 359 355 353 352 352 354 356 359 358 358 357 356 356 355
347 351 353 354 355 358 358 362 362 359 358 359 361 362 361 360 358 356 356 358 358 358 357 358 359 356 352 355 357 357 353 354 352 352 355 357 358 356 357 357 356 355 356
347 351 354 354 358 357 358 358 358 358 358 360 361 358 360 358 358 358 357 358 356 354 356 356 358 356 355 355 356 354 354 354 352 352 354 355 356 356 356 356 355 355 355
344 349 354 355 357 357 358 357 358 356 357 356 356 358 358 355 358 359 356 357 357 358 357 357 357 355 354 355 354 353 354 354 351 353 352 355 354 353 356 356 355 355 353
345 349 353 355 357 358 359 356 356 357 355 355 354 353 355 356 358 359 358 356 358 359 356 357 356 352 353 351 353 355 354 353 351 352 356 354 354 352 351 355 356 355 353
346 347 353 355 356 357 356 358 356 356 355 355 354 351 355 359 361 362 363 357 359 361 360 358 353 351 351 353 354 355 354 354 352 352 353 357 354 353 353 350 350 351 353
344 348 351 354 355 356 356 356 354 353 353 354 357 354 354 359 359 361 361 363 359 359 357 361 357 354 350 351 354 354 354 353 351 351 354 355 356 354 352 352 353 351 350
346 347 352 351 352 353 354 354 351 351 352 355 357 359 358 358 359 364 361 359 359 358 359 358 356 350 347 349 350 351 352 353 351 351 353 354 355 354 355 352 353 354 354
348 349 349 352 351 351 353 353 351 352 352 354 356 356 360 360 359 363 361 360 361 360 359 358 357 357 350 347 346 349 351 351 351 348 353 354 354 355 356 355 353 353 353
349 350 349 350 352 353 352 353 350 348 350 353 354 355 358 359 360 362 361 362 361 363 357 356 351 347 353 350 340 340 349 351 353 350 352 352 353 354 356 358 357 354 352
348 348 349 349 352 351 348 347 346 344 347 351 354 358 360 360 362 363 361 360 360 358 359 357 350 348 344 346 342 341 343 347 349 350 352 352 352 353 354 356 355 355 353
347 348 349 349 352 352 349 351 348 350 351 354 358 359 360 360 363 363 362 360 360 357 360 357 355 344 345 346 341 341 334 338 344 347 349 349 352 354 354 353 355 356 355
345 347 348 350 352 353 354 351 351 353 353 351 354 357 359 360 363 365 363 360 360 364 365 361 355 349 341 347 345 341 332 331 339 343 345 347 351 350 352 353 353 354 354
344 347 350 351 352 352 354 352 354 347 345 349 352 355 358 361 361 363 365 363 364 359 363 358 357 353 348 343 346 347 345 342 334 333 341 344 347 348 350 350 350 351 353
345 345 347 351 353 355 356 356 351 352 349 352 351 356 361 361 361 360 363 363 365 363 364 361 360 358 349 345 345 347 349 345 343 337 334 339 341 343 346 349 348 349 353
345 346 346 350 352 354 354 355 356 356 353 349 351 350 352 355 357 360 362 363 364 362 362 361 364 361 357 352 346 347 346 344 342 339 337 341 339 344 345 347 348 347 350

GFSSE_sfc_thetae_048.txt.gz
Theta_e
346 354 357 360 360 361 361 362 362 362 363 364 363 360 360 360 362 362 359 358 358 358 357 357 356 357 357 358 360 361 360 360 361 362 362 362 362 361 361 360 363 355 360
348 354 358 363 361 361 361 361 361 362 362 362 361 360 362 362 362 360 360 360 361 360 358 356 357 357 356 357 357 357 357 360 361 361 362 362 362 361 361 359 362 358 359
350 354 358 363 363 364 363 362 363 361 362 361 362 363 362 361 361 360 360 360 360 360 359 358 357 358 358 356 358 359 359 359 360 358 359 357 359 360 360 360 359 359 359
349 351 355 362 363 362 363 363 363 363 362 362 362 361 362 361 359 361 360 360 359 359 358 358 359 359 359 359 357 359 360 360 359 355 356 355 356 360 360 360 359 359 359
349 351 360 363 363 363 363 363 362 361 361 361 361 361 361 361 361 360 360 358 358 358 358 358 356 356 355 356 357 357 358 358 355 357 358 357 357 359 360 359 359 359 360
349 351 360 362 362 361 362 363 361 362 362 362 361 361 361 360 361 361 360 361 359 359 357 357 356 356 356 356 357 357 356 354 357 354 357 358 359 359 359 359 359 359 358
348 352 358 363 365 362 362 362 362 362 362 362 361 361 360 361 362 361 360 360 360 358 358 357 356 356 356 358 358 358 354 351 355 355 357 358 359 359 359 358 358 358 357
348 351 357 361 363 362 361 362 363 362 361 362 362 362 362 362 362 361 360 360 359 359 358 357 356 356 357 359 359 357 354 353 354 355 357 356 358 360 358 358 358 358 358
349 351 354 358 362 362 363 362 362 362 362 362 362 363 363 362 361 360 359 359 359 358 356 356 356 357 358 360 359 357 357 354 353 352 349 351 358 358 358 357 358 356 357
348 351 352 356 357 361 360 362 362 363 362 362 363 363 363 362 361 360 361 361 358 356 356 356 355 357 359 359 359 357 357 355 350 352 354 354 358 358 357 356 357 357 354
346 351 350 353 357 362 361 362 362 363 363 363 363 363 361 355 355 358 361 358 358 357 355 355 356 357 359 360 359 357 359 349 349 351 351 357 357 357 357 357 357 356 355
344 348 350 356 356 361 356 362 363 361 359 359 360 361 357 357 357 354 359 358 357 357 359 358 357 357 358 354 355 357 352 352 349 352 352 355 357 357 357 357 356 356 356
345 346 348 354 357 358 364 359 358 356 357 359 362 360 360 356 353 355 356 356 356 357 355 358 358 357 354 355 353 352 353 351 350 350 354 356 356 356 356 356 355 356 355
344 347 348 353 356 357 358 354 354 353 354 354 357 362 359 355 355 355 356 355 357 358 357 361 353 355 356 358 354 353 352 348 350 351 354 356 354 357 357 356 356 355 355
343 348 349 353 358 358 360 355 354 355 354 354 357 359 357 357 358 357 358 360 360 358 357 357 354 354 356 354 354 353 352 350 348 351 354 355 354 351 354 356 356 355 353
345 347 350 352 357 358 358 360 359 357 356 355 354 355 360 360 365 355 356 360 362 361 358 357 354 350 348 350 354 353 352 351 352 352 351 355 354 353 351 350 352 352 353
345 349 350 352 354 357 358 359 357 355 354 355 355 360 361 364 366 360 357 357 360 361 360 357 354 352 347 347 352 353 351 353 351 352 353 353 354 354 353 353 351 349 350
345 348 352 349 350 355 356 357 353 354 355 356 358 359 361 363 364 365 357 356 361 357 355 351 348 349 350 344 347 348 349 350 351 352 352 353 351 354 355 353 353 353 353
346 348 351 352 350 352 356 354 354 357 356 357 358 358 364 363 364 364 360 363 362 360 359 351 350 349 347 342 342 345 347 348 350 348 351 353 351 352 353 355 353 353 353
347 349 352 351 353 354 353 354 352 353 356 358 358 359 363 363 364 364 361 362 360 354 356 355 354 353 350 346 340 343 345 347 351 350 348 348 348 352 352 357 355 352 353
347 349 351 352 355 353 349 346 348 349 352 354 356 361 365 364 365 367 363 358 358 354 355 358 351 353 346 349 342 338 341 347 349 352 352 351 348 350 351 352 352 354 353
347 350 352 352 355 355 349 351 350 352 351 354 358 363 365 364 366 364 363 360 361 358 356 356 357 346 345 347 340 339 333 338 344 348 351 350 350 351 351 351 352 354 351
347 349 351 354 355 356 357 350 353 354 355 355 357 358 362 364 365 367 363 362 359 359 353 357 357 353 342 347 350 343 334 334 339 344 347 346 350 348 352 352 352 351 354
347 350 353 355 356 356 358 354 359 350 347 349 354 355 360 365 365 366 367 363 362 367 360 358 357 352 352 343 345 346 349 346 334 335 342 344 347 346 348 349 349 350 352
346 349 352 356 358 360 359 360 352 353 346 349 352 360 364 366 365 363 366 363 362 358 363 363 363 360 349 348 345 344 348 346 348 338 335 339 343 345 347 348 348 349 351
347 348 351 357 359 359 357 355 359 357 354 349 354 352 353 355 360 365 365 366 363 361 363 361 362 363 358 353 348 349 344 343 342 344 340 342 341 346 348 348 348 348 348